TimeNZDT,TemperatureF,Dew PointF,Humidity,Sea Level PressureIn,VisibilityMPH,Wind Direction,Wind SpeedMPH,Gust SpeedMPH,PrecipitationIn,Events,Conditions,WindDirDegrees,DateUTC
12:00 AM,57.2,55.4,94,30.30,6.2,WNW,2.3,-,N/A,,Mostly Cloudy,300,2013-03-27 11:00:00
1:00 AM,59.0,55.4,88,30.30,6.2,North,2.3,-,N/A,,Mostly Cloudy,10,2013-03-27 12:00:00
2:00 AM,59.0,55.4,88,30.30,6.2,North,3.5,-,N/A,,Mostly Cloudy,10,2013-03-27 13:00:00
3:00 AM,59.0,55.4,88,30.30,6.2,NNE,4.6,-,N/A,,Mostly Cloudy,20,2013-03-27 14:00:00
4:00 AM,59.0,55.4,88,30.27,6.2,NNE,3.5,-,N/A,,Mostly Cloudy,30,2013-03-27 15:00:00
5:00 AM,57.2,55.4,94,30.27,6.2,NE,3.5,-,N/A,,Mostly Cloudy,40,2013-03-27 16:00:00
6:00 AM,57.2,55.4,94,30.24,6.2,NNE,4.6,-,N/A,,Mostly Cloudy,20,2013-03-27 17:00:00
7:00 AM,57.2,55.4,94,30.24,6.2,North,4.6,-,N/A,,Mostly Cloudy,10,2013-03-27 18:00:00
8:00 AM,57.2,55.4,94,30.27,6.2,North,2.3,-,N/A,,Mostly Cloudy,360,2013-03-27 19:00:00
9:00 AM,57.2,55.4,94,30.27,6.2,NNW,5.8,-,N/A,,Mostly Cloudy,340,2013-03-27 20:00:00
10:00 AM,59.0,55.4,88,30.27,6.2,North,6.9,-,N/A,,Mostly Cloudy,10,2013-03-27 21:00:00
11:00 AM,59.0,55.4,88,30.27,6.2,NNE,6.9,-,N/A,,Mostly Cloudy,30,2013-03-27 22:00:00
12:00 PM,64.4,55.4,73,30.24,6.2,NE,8.1,-,N/A,,Mostly Cloudy,50,2013-03-27 23:00:00
1:00 PM,66.2,55.4,68,30.21,6.2,ENE,8.1,-,N/A,,Partly Cloudy,60,2013-03-28 00:00:00
2:00 PM,68.0,55.4,64,30.21,6.2,ENE,10.4,-,N/A,,Partly Cloudy,70,2013-03-28 01:00:00
3:00 PM,68.0,57.2,68,30.18,6.2,ENE,10.4,-,N/A,,Partly Cloudy,70,2013-03-28 02:00:00
4:00 PM,66.2,55.4,68,30.15,6.2,ENE,10.4,-,N/A,,Partly Cloudy,60,2013-03-28 03:00:00
5:00 PM,64.4,55.4,73,30.15,6.2,NE,11.5,-,N/A,,Scattered Clouds,50,2013-03-28 04:00:00
5:30 PM,62.6,55.4,77,30.15,6.2,ENE,11.5,-,N/A,,Mostly Cloudy,60,2013-03-28 04:30:00
6:00 PM,60.8,55.4,82,30.15,6.2,ENE,11.5,-,N/A,,Mostly Cloudy,70,2013-03-28 05:00:00
7:00 PM,59.0,55.4,88,30.15,6.2,NE,10.4,-,N/A,,Mostly Cloudy,50,2013-03-28 06:00:00
8:00 PM,57.2,55.4,94,30.15,6.2,East,10.4,-,N/A,,Mostly Cloudy,80,2013-03-28 07:00:00
9:00 PM,57.2,55.4,94,30.15,6.2,ENE,9.2,-,N/A,,Mostly Cloudy,70,2013-03-28 08:00:00
10:00 PM,57.2,55.4,94,30.15,6.2,NE,8.1,-,N/A,,Mostly Cloudy,40,2013-03-28 09:00:00
11:00 PM,57.2,55.4,94,30.12,6.2,ENE,8.1,-,N/A,,Mostly Cloudy,60,2013-03-28 10:00:00